[[{"header":{"parameterUnit":"m.s-1","parameterCategory":1,"la1":30.2991,"la2":30.254,"lo1":-89.0895,"lo2":-89.0444,"dy":0.0017,"dx":0.0017,"nx":28,"ny":28,"refTime":"2025-07-18T21:00:00:Z","depth":0,"parameterNumber":2,"parameterNumberName":"U-component_of_WINDS"},"data":[0,0,0,0,0,0,0,0,0,0,0,0,0,0,0,0,0,0,0,0,0,0,0,0,0,0,0,0,0,0,0,0,0,0,0,0,0,0,0,0,0,0,0,0,0,0,0,0,0,0,0,0,0,0,0,0,0,0,3.6853,3.6854,0,3.6978,3.698,3.6981,3.6952,3.6949,3.6947,3.6944,3.7073,3.7078,3.7084,0,0,0,0,0,0,0,0,0,0,0,0,0,3.6585,3.659,3.6853,3.6854,3.6856,3.6978,3.698,3.6981,3.6952,3.6949,3.6946,3.6943,3.7071,3.7078,3.7085,0,0,0,0,0,0,0,0,0,0,0,0,0,3.6705,3.6592,3.6853,3.6856,3.6857,3.6978,3.698,3.6982,3.6953,3.6949,3.6945,3.6942,3.7069,3.7077,3.7085,3.721,0,0,3.7111,3.7115,0,0,0,0,0,0,0,0,3.6698,3.6715,3.6854,3.6856,3.6858,3.6946,3.6933,3.7058,3.6954,3.6917,3.6944,3.694,3.7033,3.7045,3.7076,3.7216,3.7222,3.7112,3.7117,3.7121,3.7123,0,0,0,0,0,0,0,3.669,3.671,3.6902,3.6856,3.6858,3.685,3.6863,3.6956,3.6994,3.6919,3.6918,3.6933,3.7034,3.7068,3.7079,3.7223,3.7112,3.7119,3.7125,3.7128,3.7467,3.7471,0,0,0,0,0,0,3.668,3.6703,3.6898,3.6906,3.6768,3.6858,3.6873,3.6921,3.6993,3.7,3.6936,3.6931,3.7055,3.7069,3.7083,3.723,3.7121,3.7129,3.7134,3.7463,3.7468,3.7472,0,0,0,0,0,0,3.6675,3.6698,3.6893,3.6804,3.6828,3.6867,3.6921,3.6925,3.6959,3.7005,3.7011,3.6964,3.7053,3.7071,3.7178,3.7234,3.7133,3.714,3.7459,3.7465,3.747,3.7527,0,0,0,0,0,0,3.6667,3.6696,3.6745,3.6805,3.6833,3.6987,3.6925,3.6931,3.6974,3.6969,3.7033,3.704,3.7052,3.7165,3.7186,3.7244,3.7147,3.7454,3.7461,3.7468,3.752,3.7534,3.7546,0,0,0,0,0,3.6658,3.6757,3.6747,3.6771,3.6895,3.699,3.7006,3.7017,3.6979,3.7027,3.7056,3.7038,3.7225,3.7176,3.72,3.7261,3.745,3.7459,3.7468,3.7514,3.7531,3.7546,0,0,0,0,0,0,3.6703,3.6765,3.6755,3.6877,3.6928,3.6985,3.7046,3.7035,3.7098,3.7091,3.7102,3.7117,3.7224,3.7254,3.7198,3.7383,3.7332,3.7346,3.7359,3.7376,3.7389,3.7378,3.7154,0,0,0,0,0,3.6727,3.6799,3.685,3.6952,3.6978,3.7008,3.705,3.7054,3.7107,3.7129,3.7166,3.7218,3.7288,3.7334,3.7402,3.7525,3.7536,3.7579,3.7591,3.7602,3.7613,3.7676,3.7694,3.7501,3.7501,3.7501,0,0,3.6777,3.682,3.6865,3.6962,3.7002,3.7076,3.7026,3.7107,3.7161,3.7141,3.7242,3.7271,3.7331,3.7445,3.7497,3.7472,3.7669,3.7613,3.7621,3.7626,3.7687,3.7705,3.7721,3.7507,3.7506,3.7505,0,0,3.6905,3.6947,3.7034,3.7075,3.7136,3.7155,3.7176,3.7234,3.7252,3.7354,3.7339,3.7404,3.7526,3.7567,3.7604,3.7745,3.7729,3.7767,3.7833,3.7895,3.791,3.7923,3.797,3.7987,3.7778,3.7778,3.7779,0,3.696,3.707,3.7081,3.7162,3.7203,3.7188,3.7276,3.7315,3.7395,3.7424,3.7396,3.7545,3.7585,3.7706,3.774,3.7772,3.7794,3.7758,3.7907,3.792,3.7933,3.7977,3.7995,3.7782,3.7782,3.7781,3.7781,0,3.7132,3.7209,3.7273,3.7349,3.7398,3.7482,3.7504,3.7552,3.7552,3.7573,3.7675,3.7721,3.7795,3.7825,3.7827,3.7946,3.7928,3.7904,3.7852,3.7955,3.7997,3.8014,3.7788,3.7786,3.7785,3.7784,0,0,3.7292,3.7372,3.7394,3.7427,3.7492,3.7551,3.7634,3.7706,3.7745,3.7801,3.7868,3.7971,3.7947,3.7989,3.7994,3.8049,3.8152,3.8017,3.8018,3.8037,3.8282,3.8298,3.8318,3.8144,3.8147,3.815,3.8276,0,3.7423,3.7568,3.7579,3.7709,3.7777,3.7763,3.7834,3.7881,3.7903,3.7964,3.7988,3.8058,3.8024,3.8048,3.8102,3.8128,3.8201,3.812,3.8204,3.8207,3.8186,3.834,3.8358,3.8475,3.8293,3.8296,3.8298,0,3.7596,3.7654,3.7791,3.7843,3.7872,3.7936,3.8001,3.8061,3.8112,3.8124,3.817,3.8167,3.8249,3.8196,3.8308,3.8253,3.8288,3.8306,3.8311,3.8316,3.8256,3.8346,3.8513,3.8529,3.8324,3.8322,3.832,0,3.7693,3.7807,3.7902,3.7931,3.7996,3.804,3.8069,3.8117,3.8159,3.8216,3.8242,3.8309,3.8345,3.8396,3.841,3.8371,3.852,3.847,3.853,3.8529,3.856,3.8557,3.873,3.8588,3.8588,3.8588,3.8587,0,3.7836,3.7919,3.7946,3.8004,3.8096,3.8107,3.8197,3.8224,3.8266,3.8328,3.8321,3.8379,3.8396,3.8457,3.8469,3.8557,3.8575,3.8584,3.8586,3.8583,3.8581,3.8604,3.8595,3.8592,3.8591,3.8591,3.859,0,3.796,3.7982,3.8084,3.8136,3.8151,3.8215,3.8259,3.8314,3.8334,3.8412,3.8431,3.8462,3.8533,3.8553,3.8638,3.8646,3.8749,3.8745,3.8731,3.8729,3.8787,3.878,3.8978,3.9003,3.8848,3.885,3.8851,0,3.8048,3.8111,3.8169,3.821,3.824,3.8306,3.8348,3.8361,3.8404,3.8467,3.8513,3.8583,3.8639,3.8752,3.8781,3.8846,3.8841,3.8906,3.885,3.8844,3.8837,3.8832,3.8836,3.8915,3.8917,3.8919,3.892,0,3.8201,3.8208,3.8268,3.8332,3.8382,3.8433,3.8482,3.8515,3.8535,3.8584,3.8655,3.8699,3.8784,3.8852,3.8917,3.8945,3.8935,3.8937,3.8954,3.895,3.8937,3.894,3.8755,3.8932,3.8931,3.893,3.8929,3.8929,3.8307,3.8361,3.8409,3.8476,3.8513,3.8558,3.8611,3.8637,3.8697,3.8767,3.8772,3.8848,3.8896,3.8981,3.9013,3.9072,3.9052,3.9078,3.9083,3.9088,3.9091,3.893,3.9084,3.9084,3.9084,3.9083,3.9083,0,3.8456,3.8486,3.8547,3.8614,3.8666,3.8653,3.8705,3.8749,3.8816,3.8861,3.8916,3.8996,3.9061,3.9096,3.916,3.92,3.9197,3.9216,3.9212,3.9217,3.9107,3.9084,3.9218,3.9218,3.9218,3.9218,3.9217,3.9217,3.8539,3.8628,3.864,3.8747,3.8776,3.885,3.8881,3.8922,3.8957,3.9047,3.9101,3.9123,3.9163,3.9229,3.9287,3.9296,3.9318,3.9339,3.9345,3.924,3.9226,3.9213,3.9191,3.9345,3.9345,3.945,3.9451,3.9452]},{"header":{"parameterUnit":"m.s-1","parameterCategory":1,"la1":30.2991,"la2":30.254,"lo1":-89.0895,"lo2":-89.0444,"dy":0.0017,"dx":0.0017,"nx":28,"ny":28,"refTime":"2025-07-18T21:00:00:Z","depth":0,"parameterNumber":3,"parameterNumberName":"V-component_of_WINDS"},"data":[0,0,0,0,0,0,0,0,0,0,0,0,0,0,0,0,0,0,0,0,0,0,0,0,0,0,0,0,0,0,0,0,0,0,0,0,0,0,0,0,0,0,0,0,0,0,0,0,0,0,0,0,0,0,0,0,0,0,1.8279,1.828,0,1.8349,1.8349,1.835,1.8328,1.8326,1.8325,1.8324,1.8394,1.8397,1.84,0,0,0,0,0,0,0,0,0,0,0,0,0,1.8124,1.8127,1.8279,1.828,1.8281,1.8349,1.8349,1.835,1.8328,1.8326,1.8325,1.8323,1.8392,1.8396,1.84,0,0,0,0,0,0,0,0,0,0,0,0,0,1.8193,1.8128,1.8279,1.8278,1.8278,1.8348,1.8349,1.8351,1.8329,1.8326,1.8324,1.8322,1.8391,1.8396,1.8401,1.8475,0,0,1.8416,1.8418,0,0,0,0,0,0,0,0,1.8189,1.8198,1.8277,1.8278,1.8279,1.8327,1.8321,1.8392,1.8329,1.831,1.8324,1.8321,1.8373,1.8379,1.8397,1.8479,1.8482,1.8416,1.8419,1.8421,1.8422,0,0,0,0,0,0,0,1.8184,1.8195,1.8306,1.8278,1.8279,1.8273,1.828,1.8334,1.8353,1.8311,1.831,1.8318,1.8373,1.8393,1.8399,1.8483,1.8416,1.842,1.8423,1.8425,1.8627,1.863,0,0,0,0,0,0,1.8179,1.8191,1.8304,1.8309,1.8227,1.8278,1.8286,1.8314,1.8352,1.8356,1.832,1.8317,1.8385,1.8393,1.8401,1.8491,1.8421,1.8426,1.8428,1.8625,1.8628,1.863,0,0,0,0,0,0,1.8176,1.8189,1.8301,1.825,1.8263,1.8283,1.8315,1.8317,1.8336,1.8359,1.8362,1.8337,1.8384,1.8394,1.8457,1.8493,1.8428,1.8432,1.8622,1.8626,1.8629,1.867,0,0,0,0,0,0,1.8171,1.8188,1.8218,1.825,1.8266,1.8357,1.8317,1.832,1.8345,1.8341,1.8376,1.8379,1.8383,1.845,1.8462,1.8498,1.8436,1.8619,1.8624,1.8628,1.8666,1.8675,1.8683,0,0,0,0,0,1.8166,1.8226,1.8219,1.8233,1.8303,1.8359,1.8368,1.8372,1.8348,1.8377,1.8391,1.8378,1.8487,1.8456,1.847,1.8508,1.8617,1.8622,1.8628,1.8662,1.8673,1.8682,0,0,0,0,0,0,1.8197,1.8231,1.8223,1.8296,1.8325,1.8355,1.8392,1.8384,1.842,1.8415,1.8417,1.8425,1.849,1.8505,1.8471,1.8582,1.8548,1.8556,1.8569,1.858,1.8588,1.8584,1.844,0,0,0,0,0,1.8212,1.8255,1.8282,1.8344,1.8359,1.8373,1.8397,1.8398,1.8427,1.8439,1.8459,1.8488,1.8528,1.8555,1.8594,1.8667,1.8674,1.87,1.8709,1.8716,1.8723,1.8762,1.8774,1.8649,1.8648,1.8648,0,0,1.8244,1.8268,1.8295,1.835,1.8373,1.8417,1.8383,1.8431,1.8464,1.8447,1.8507,1.8522,1.8554,1.8623,1.8654,1.8637,1.8759,1.8723,1.8728,1.8732,1.8769,1.8781,1.8791,1.8652,1.8652,1.8651,0,0,1.8325,1.8348,1.8401,1.8424,1.8458,1.8467,1.848,1.8512,1.8521,1.8582,1.857,1.8607,1.8677,1.8701,1.8722,1.881,1.8799,1.8822,1.8867,1.8905,1.8915,1.8923,1.8954,1.8966,1.8829,1.883,1.883,0,1.8361,1.8427,1.843,1.8479,1.8503,1.8489,1.8543,1.8565,1.861,1.8627,1.8608,1.8695,1.8716,1.8789,1.881,1.8828,1.8842,1.8819,1.8913,1.8922,1.893,1.896,1.8971,1.8832,1.8832,1.8832,1.8831,0,1.8468,1.8514,1.8553,1.8597,1.8626,1.8677,1.8687,1.8715,1.8712,1.8723,1.8784,1.8808,1.8851,1.8868,1.8867,1.8941,1.893,1.8912,1.8878,1.8945,1.8972,1.8984,1.8836,1.8835,1.8834,1.8834,0,0,1.8572,1.8616,1.863,1.865,1.8686,1.8721,1.8771,1.8813,1.8837,1.8868,1.8909,1.8968,1.8952,1.8975,1.8976,1.9009,1.9077,1.8987,1.8988,1.9003,1.916,1.9173,1.9186,1.9069,1.9071,1.9073,1.9157,0,1.8656,1.8744,1.8747,1.8827,1.8869,1.8856,1.8899,1.8926,1.8937,1.8973,1.8984,1.9026,1.9001,1.9016,1.9048,1.9062,1.9108,1.9056,1.9107,1.9109,1.91,1.9201,1.9215,1.9293,1.9168,1.917,1.9171,0,1.8765,1.88,1.8885,1.8914,1.8931,1.897,1.9009,1.9044,1.9073,1.9078,1.9105,1.91,1.9149,1.9113,1.9181,1.9146,1.9166,1.9176,1.9179,1.9184,1.9144,1.9209,1.9318,1.933,1.9188,1.9187,1.9186,0,1.8832,1.89,1.8959,1.8976,1.9011,1.9039,1.9055,1.9082,1.9107,1.914,1.9156,1.9194,1.9215,1.9245,1.925,1.9223,1.9318,1.9282,1.9323,1.9323,1.9344,1.9343,1.9459,1.9357,1.9357,1.9357,1.9357,0,1.8925,1.8977,1.8989,1.9025,1.9083,1.9085,1.9142,1.9156,1.918,1.9218,1.9209,1.9244,1.9249,1.9285,1.9289,1.9345,1.9354,1.936,1.936,1.9361,1.936,1.9375,1.9369,1.936,1.9359,1.9359,1.9358,0,1.901,1.902,1.9083,1.9111,1.912,1.9161,1.9185,1.9219,1.9228,1.9277,1.9288,1.9303,1.9345,1.9353,1.9403,1.9406,1.9472,1.9467,1.9462,1.9461,1.9502,1.9498,1.9631,1.9649,1.9536,1.9537,1.9538,0,1.9069,1.9108,1.9141,1.9166,1.9183,1.9224,1.9249,1.9253,1.9279,1.9315,1.9344,1.9386,1.942,1.9488,1.9502,1.954,1.9536,1.958,1.9542,1.9541,1.9537,1.9534,1.9538,1.9588,1.9589,1.959,1.9591,0,1.9172,1.9175,1.9212,1.925,1.9281,1.9311,1.934,1.9361,1.9368,1.9398,1.9442,1.9468,1.9518,1.956,1.9597,1.9613,1.9603,1.9603,1.9614,1.9615,1.9611,1.9613,1.9482,1.96,1.9599,1.9598,1.9598,1.9597,1.9245,1.928,1.9308,1.9349,1.9371,1.9398,1.9432,1.9445,1.9481,1.9524,1.9523,1.9571,1.9597,1.9647,1.9665,1.9701,1.9687,1.9704,1.9708,1.9712,1.9716,1.9605,1.9708,1.9708,1.9708,1.9707,1.9707,0,1.9348,1.9365,1.9403,1.9444,1.9476,1.9464,1.9495,1.9523,1.9565,1.9591,1.9624,1.9673,1.9713,1.973,1.9769,1.9795,1.9791,1.9805,1.9803,1.9806,1.9726,1.9712,1.9807,1.9807,1.9807,1.9807,1.9807,1.9807,1.9405,1.9463,1.9469,1.9536,1.9553,1.96,1.9619,1.9643,1.9664,1.972,1.9753,1.9764,1.9786,1.9826,1.9861,1.9865,1.988,1.9895,1.9897,1.9822,1.9812,1.9802,1.979,1.9898,1.9899,1.9974,1.9975,1.9975]}]]